Time,TemperatureF,DewpointF,PressureIn,WindDirection,WindDirectionDegrees,WindSpeedMPH,WindSpeedGustMPH,Humidity,HourlyPrecipIn,Conditions,Clouds,dailyrainin,SoftwareType,DateUTC
2013-02-04 00:00:00,30.8,25.4,30.09,ENE,64,0.0,2.0,80,0.00,,,0.00,Wunderground v.1.15,2013-02-04 05:00:00,
2013-02-04 00:02:00,30.8,25.4,30.09,ENE,64,0.0,2.0,80,0.00,,,0.00,Wunderground v.1.15,2013-02-04 05:02:00,
2013-02-04 00:06:00,30.8,25.4,30.09,ENE,64,0.0,2.0,80,0.00,,,0.00,Wunderground v.1.15,2013-02-04 05:06:00,
2013-02-04 00:12:00,30.7,25.3,30.09,ENE,64,0.0,0.0,80,0.00,,,0.00,Wunderground v.1.15,2013-02-04 05:12:00,
2013-02-04 00:18:00,30.3,24.9,30.09,ENE,64,0.0,0.0,80,0.00,,,0.00,Wunderground v.1.15,2013-02-04 05:18:00,
2013-02-04 00:24:00,30.0,24.9,30.09,ENE,64,0.0,0.0,81,0.00,,,0.00,Wunderground v.1.15,2013-02-04 05:24:00,
2013-02-04 00:30:00,29.8,25.0,30.09,ENE,64,0.0,0.0,82,0.00,,,0.00,Wunderground v.1.15,2013-02-04 05:30:00,
2013-02-04 00:36:00,29.7,25.2,30.09,ENE,64,0.0,0.0,83,0.00,,,0.00,Wunderground v.1.15,2013-02-04 05:36:00,
2013-02-04 00:42:00,29.6,25.1,30.09,ENE,64,0.0,0.0,83,0.00,,,0.00,Wunderground v.1.15,2013-02-04 05:42:00,
2013-02-04 00:48:00,29.4,24.9,30.09,ENE,64,0.0,0.0,83,0.00,,,0.00,Wunderground v.1.15,2013-02-04 05:48:00,
2013-02-04 00:54:00,29.2,25.0,30.09,ENE,64,0.0,0.0,84,0.00,,,0.00,Wunderground v.1.15,2013-02-04 05:54:00,
2013-02-04 01:00:00,29.1,24.9,30.09,ENE,64,0.0,0.0,84,0.00,,,0.00,Wunderground v.1.15,2013-02-04 06:00:00,
2013-02-04 01:06:00,29.1,24.9,30.09,ENE,64,0.0,0.0,84,0.00,,,0.00,Wunderground v.1.15,2013-02-04 06:06:00,
2013-02-04 01:12:00,29.0,24.8,30.08,ENE,64,0.0,0.0,84,0.00,,,0.00,Wunderground v.1.15,2013-02-04 06:12:00,
2013-02-04 01:18:00,28.8,24.6,30.09,ENE,64,0.0,0.0,84,0.00,,,0.00,Wunderground v.1.15,2013-02-04 06:18:00,
2013-02-04 01:24:00,28.6,24.7,30.09,ENE,64,0.0,0.0,85,0.00,,,0.00,Wunderground v.1.15,2013-02-04 06:24:00,
2013-02-04 01:30:00,28.3,24.4,30.10,ENE,64,0.0,0.0,85,0.00,,,0.00,Wunderground v.1.15,2013-02-04 06:30:00,
2013-02-04 01:36:00,28.1,24.5,30.10,ENE,64,0.0,0.0,86,0.00,,,0.00,Wunderground v.1.15,2013-02-04 06:36:00,
2013-02-04 01:42:00,28.0,24.6,30.10,ENE,64,0.0,0.0,87,0.00,,,0.00,Wunderground v.1.15,2013-02-04 06:42:00,
2013-02-04 01:48:00,28.0,24.6,30.10,ENE,64,0.0,0.0,87,0.00,,,0.00,Wunderground v.1.15,2013-02-04 06:48:00,
2013-02-04 01:54:00,28.0,24.6,30.10,ENE,64,0.0,0.0,87,0.00,,,0.00,Wunderground v.1.15,2013-02-04 06:54:00,
2013-02-04 02:00:00,28.1,24.7,30.10,ENE,64,0.0,0.0,87,0.00,,,0.00,Wunderground v.1.15,2013-02-04 07:00:00,
2013-02-04 02:06:00,28.2,24.8,30.11,ENE,64,0.0,0.0,87,0.00,,,0.00,Wunderground v.1.15,2013-02-04 07:06:00,
2013-02-04 02:12:00,28.3,24.9,30.10,ENE,64,0.0,0.0,87,0.00,,,0.00,Wunderground v.1.15,2013-02-04 07:12:00,
2013-02-04 02:18:00,28.4,25.0,30.10,ENE,64,0.0,0.0,87,0.00,,,0.00,Wunderground v.1.15,2013-02-04 07:18:00,
2013-02-04 02:24:00,28.5,25.1,30.10,ENE,64,0.0,0.0,87,0.00,,,0.00,Wunderground v.1.15,2013-02-04 07:24:00,
2013-02-04 02:30:00,28.3,24.6,30.11,ENE,64,0.0,0.0,86,0.00,,,0.00,Wunderground v.1.15,2013-02-04 07:30:00,
2013-02-04 02:36:00,28.0,24.4,30.10,ENE,64,0.0,0.0,86,0.00,,,0.00,Wunderground v.1.15,2013-02-04 07:36:00,
2013-02-04 02:42:00,27.7,24.3,30.11,ENE,64,0.0,0.0,87,0.00,,,0.00,Wunderground v.1.15,2013-02-04 07:42:00,
2013-02-04 02:48:00,27.5,24.1,30.11,ENE,64,0.0,0.0,87,0.00,,,0.00,Wunderground v.1.15,2013-02-04 07:48:00,
2013-02-04 02:54:00,27.3,24.2,30.10,ENE,64,0.0,0.0,88,0.00,,,0.00,Wunderground v.1.15,2013-02-04 07:54:00,
2013-02-04 03:00:00,27.3,24.2,30.10,ENE,64,0.0,0.0,88,0.00,,,0.00,Wunderground v.1.15,2013-02-04 08:00:00,
2013-02-04 03:06:00,27.2,24.4,30.11,ENE,64,0.0,0.0,89,0.00,,,0.00,Wunderground v.1.15,2013-02-04 08:06:00,
2013-02-04 03:12:00,27.3,24.5,30.11,ENE,64,0.0,0.0,89,0.00,,,0.00,Wunderground v.1.15,2013-02-04 08:12:00,
2013-02-04 03:18:00,27.6,24.8,30.11,ENE,64,0.0,0.0,89,0.00,,,0.00,Wunderground v.1.15,2013-02-04 08:18:00,
2013-02-04 03:24:00,27.9,24.8,30.11,ENE,64,0.0,0.0,88,0.00,,,0.00,Wunderground v.1.15,2013-02-04 08:24:00,
2013-02-04 03:30:00,28.0,24.6,30.11,ENE,64,0.0,0.0,87,0.00,,,0.00,Wunderground v.1.15,2013-02-04 08:30:00,
2013-02-04 03:36:00,27.9,24.5,30.11,ENE,64,0.0,0.0,87,0.00,,,0.00,Wunderground v.1.15,2013-02-04 08:36:00,
2013-02-04 03:42:00,27.7,24.3,30.11,ENE,64,0.0,0.0,87,0.00,,,0.00,Wunderground v.1.15,2013-02-04 08:42:00,
2013-02-04 03:48:00,27.6,24.2,30.11,ENE,64,0.0,0.0,87,0.00,,,0.00,Wunderground v.1.15,2013-02-04 08:48:00,
2013-02-04 03:54:00,27.4,24.3,30.11,ENE,64,0.0,0.0,88,0.00,,,0.00,Wunderground v.1.15,2013-02-04 08:54:00,
2013-02-04 04:00:00,27.1,23.7,30.11,ENE,64,0.0,0.0,87,0.00,,,0.00,Wunderground v.1.15,2013-02-04 09:00:00,
2013-02-04 04:06:00,26.9,23.8,30.12,ENE,64,0.0,0.0,88,0.00,,,0.00,Wunderground v.1.15,2013-02-04 09:06:00,
2013-02-04 04:12:00,26.7,23.6,30.11,ENE,64,0.0,0.0,88,0.00,,,0.00,Wunderground v.1.15,2013-02-04 09:12:00,
2013-02-04 04:18:00,26.5,23.4,30.11,ENE,64,0.0,0.0,88,0.00,,,0.00,Wunderground v.1.15,2013-02-04 09:18:00,
2013-02-04 04:24:00,26.3,23.5,30.11,ENE,64,0.0,0.0,89,0.00,,,0.00,Wunderground v.1.15,2013-02-04 09:24:00,
2013-02-04 04:30:00,26.3,23.8,30.12,ENE,64,0.0,0.0,90,0.00,,,0.00,Wunderground v.1.15,2013-02-04 09:30:00,
2013-02-04 04:36:00,26.3,23.5,30.12,ENE,64,0.0,0.0,89,0.00,,,0.00,Wunderground v.1.15,2013-02-04 09:36:00,
2013-02-04 04:42:00,26.2,23.4,30.13,ENE,64,0.0,0.0,89,0.00,,,0.00,Wunderground v.1.15,2013-02-04 09:42:00,
2013-02-04 04:48:00,26.0,23.2,30.13,ENE,64,0.0,0.0,89,0.00,,,0.00,Wunderground v.1.15,2013-02-04 09:48:00,
2013-02-04 04:54:00,25.9,23.4,30.13,ENE,64,0.0,0.0,90,0.00,,,0.00,Wunderground v.1.15,2013-02-04 09:54:00,
2013-02-04 05:00:00,25.8,23.3,30.13,ENE,64,0.0,0.0,90,0.00,,,0.00,Wunderground v.1.15,2013-02-04 10:00:00,
2013-02-04 05:06:00,25.7,23.2,30.14,ENE,64,0.0,0.0,90,0.00,,,0.00,Wunderground v.1.15,2013-02-04 10:06:00,
2013-02-04 05:12:00,25.6,23.1,30.14,ENE,64,0.0,0.0,90,0.00,,,0.00,Wunderground v.1.15,2013-02-04 10:12:00,
2013-02-04 05:18:00,25.7,23.4,30.13,ENE,64,0.0,0.0,91,0.00,,,0.00,Wunderground v.1.15,2013-02-04 10:18:00,
2013-02-04 05:24:00,25.7,23.7,30.13,ENE,64,0.0,0.0,92,0.00,,,0.00,Wunderground v.1.15,2013-02-04 10:24:00,
2013-02-04 05:30:00,25.9,23.9,30.13,ENE,64,0.0,0.0,92,0.00,,,0.00,Wunderground v.1.15,2013-02-04 10:30:00,
2013-02-04 05:36:00,25.8,23.5,30.14,ENE,64,0.0,0.0,91,0.00,,,0.00,Wunderground v.1.15,2013-02-04 10:36:00,
2013-02-04 05:42:00,25.6,23.1,30.14,ENE,64,0.0,0.0,90,0.00,,,0.00,Wunderground v.1.15,2013-02-04 10:42:00,
2013-02-04 05:48:00,25.4,22.9,30.14,ENE,64,0.0,0.0,90,0.00,,,0.00,Wunderground v.1.15,2013-02-04 10:48:00,
2013-02-04 05:54:00,25.2,22.7,30.14,ENE,64,0.0,0.0,90,0.00,,,0.00,Wunderground v.1.15,2013-02-04 10:54:00,
2013-02-04 06:00:00,25.2,23.2,30.14,ENE,64,0.0,0.0,92,0.00,,,0.00,Wunderground v.1.15,2013-02-04 11:00:00,
2013-02-04 06:06:00,25.2,23.2,30.14,ENE,64,0.0,0.0,92,0.00,,,0.00,Wunderground v.1.15,2013-02-04 11:06:00,
2013-02-04 06:12:00,25.2,23.2,30.13,ENE,64,0.0,0.0,92,0.00,,,0.00,Wunderground v.1.15,2013-02-04 11:12:00,
2013-02-04 06:18:00,25.3,23.3,30.14,ENE,64,0.0,0.0,92,0.00,,,0.00,Wunderground v.1.15,2013-02-04 11:18:00,
2013-02-04 06:24:00,25.4,23.7,30.14,ENE,64,0.0,0.0,93,0.00,,,0.00,Wunderground v.1.15,2013-02-04 11:24:00,
2013-02-04 06:30:00,25.5,23.5,30.14,ENE,64,0.0,0.0,92,0.00,,,0.00,Wunderground v.1.15,2013-02-04 11:30:00,
2013-02-04 06:36:00,25.6,23.9,30.14,ENE,64,0.0,0.0,93,0.00,,,0.00,Wunderground v.1.15,2013-02-04 11:36:00,
2013-02-04 06:42:00,25.8,24.1,30.14,ENE,64,0.0,0.0,93,0.00,,,0.00,Wunderground v.1.15,2013-02-04 11:42:00,
2013-02-04 06:48:00,25.8,23.8,30.14,ENE,64,0.0,0.0,92,0.00,,,0.00,Wunderground v.1.15,2013-02-04 11:48:00,
2013-02-04 06:54:00,25.8,24.1,30.15,ENE,64,0.0,0.0,93,0.00,,,0.00,Wunderground v.1.15,2013-02-04 11:54:00,
2013-02-04 07:00:00,26.0,24.0,30.15,ENE,64,0.0,0.0,92,0.00,,,0.00,Wunderground v.1.15,2013-02-04 12:00:00,
2013-02-04 07:06:00,26.0,24.0,30.15,ENE,64,0.0,0.0,92,0.00,,,0.00,Wunderground v.1.15,2013-02-04 12:06:00,
2013-02-04 07:12:00,25.9,23.9,30.15,ENE,64,0.0,0.0,92,0.00,,,0.00,Wunderground v.1.15,2013-02-04 12:12:00,
2013-02-04 07:18:00,26.0,24.0,30.16,ENE,64,0.0,0.0,92,0.00,,,0.00,Wunderground v.1.15,2013-02-04 12:18:00,
2013-02-04 07:24:00,26.0,24.0,30.16,ENE,64,0.0,0.0,92,0.00,,,0.00,Wunderground v.1.15,2013-02-04 12:24:00,
2013-02-04 07:30:00,26.1,24.1,30.16,ENE,64,0.0,0.0,92,0.00,,,0.00,Wunderground v.1.15,2013-02-04 12:30:00,
2013-02-04 07:36:00,26.4,24.7,30.17,ENE,64,0.0,0.0,93,0.00,,,0.00,Wunderground v.1.15,2013-02-04 12:36:00,
2013-02-04 07:42:00,26.7,24.9,30.17,ENE,64,0.0,0.0,93,0.00,,,0.00,Wunderground v.1.15,2013-02-04 12:42:00,
2013-02-04 07:48:00,26.9,24.9,30.18,ENE,64,0.0,0.0,92,0.00,,,0.00,Wunderground v.1.15,2013-02-04 12:48:00,
2013-02-04 07:54:00,27.1,25.1,30.18,ENE,64,0.0,0.0,92,0.00,,,0.00,Wunderground v.1.15,2013-02-04 12:54:00,
2013-02-04 08:00:00,27.3,25.3,30.19,ENE,64,0.0,0.0,92,0.00,,,0.00,Wunderground v.1.15,2013-02-04 13:00:00,
2013-02-04 08:06:00,27.6,25.6,30.19,ENE,64,0.0,0.0,92,0.00,,,0.00,Wunderground v.1.15,2013-02-04 13:06:00,
2013-02-04 08:12:00,28.0,26.0,30.19,ENE,64,0.0,0.0,92,0.00,,,0.00,Wunderground v.1.15,2013-02-04 13:12:00,
2013-02-04 08:18:00,28.4,26.4,30.20,ENE,64,0.0,0.0,92,0.00,,,0.00,Wunderground v.1.15,2013-02-04 13:18:00,
2013-02-04 08:24:00,28.9,26.9,30.19,ENE,64,0.0,0.0,92,0.00,,,0.00,Wunderground v.1.15,2013-02-04 13:24:00,
2013-02-04 08:30:00,29.4,27.1,30.20,ENE,64,0.0,0.0,91,0.00,,,0.00,Wunderground v.1.15,2013-02-04 13:30:00,
2013-02-04 08:36:00,30.0,27.4,30.19,ENE,64,0.0,0.0,90,0.00,,,0.00,Wunderground v.1.15,2013-02-04 13:36:00,
2013-02-04 08:42:00,30.4,27.8,30.20,ENE,64,0.0,0.0,90,0.00,,,0.00,Wunderground v.1.15,2013-02-04 13:42:00,
2013-02-04 08:48:00,30.9,27.8,30.20,ENE,64,0.0,0.0,88,0.00,,,0.00,Wunderground v.1.15,2013-02-04 13:48:00,
2013-02-04 08:54:00,31.3,27.6,30.21,ENE,64,0.0,0.0,86,0.00,,,0.00,Wunderground v.1.15,2013-02-04 13:54:00,
2013-02-04 09:00:00,31.7,28.0,30.22,ENE,64,0.0,0.0,86,0.00,,,0.00,Wunderground v.1.15,2013-02-04 14:00:00,
2013-02-04 09:06:00,32.2,27.9,30.22,ENE,64,0.0,0.0,84,0.00,,,0.00,Wunderground v.1.15,2013-02-04 14:06:00,
2013-02-04 09:12:00,32.7,27.8,30.22,ENE,64,0.0,0.0,82,0.00,,,0.00,Wunderground v.1.15,2013-02-04 14:12:00,
2013-02-04 09:18:00,33.2,27.4,30.22,ENE,64,0.0,0.0,79,0.00,,,0.00,Wunderground v.1.15,2013-02-04 14:18:00,
2013-02-04 09:24:00,33.7,27.9,30.21,ENE,64,0.0,0.0,79,0.00,,,0.00,Wunderground v.1.15,2013-02-04 14:24:00,
2013-02-04 09:30:00,34.6,28.1,30.22,ENE,64,0.0,0.0,77,0.00,,,0.00,Wunderground v.1.15,2013-02-04 14:30:00,
2013-02-04 09:36:00,35.5,28.4,30.21,ENE,64,0.0,0.0,75,0.00,,,0.00,Wunderground v.1.15,2013-02-04 14:36:00,
2013-02-04 09:42:00,36.4,29.6,30.21,ENE,64,0.0,0.0,76,0.00,,,0.00,Wunderground v.1.15,2013-02-04 14:42:00,
2013-02-04 09:48:00,37.0,28.5,30.22,ENE,63,0.0,0.0,71,0.00,,,0.00,Wunderground v.1.15,2013-02-04 14:48:00,
2013-02-04 09:54:00,37.6,29.0,30.21,ENE,63,0.0,0.0,71,0.00,,,0.00,Wunderground v.1.15,2013-02-04 14:54:00,
2013-02-04 10:00:00,38.7,30.1,30.21,North,351,0.0,2.0,71,0.00,,,0.00,Wunderground v.1.15,2013-02-04 15:00:00,
2013-02-04 10:06:00,40.1,29.3,30.22,West,266,0.0,2.0,65,0.00,,,0.00,Wunderground v.1.15,2013-02-04 15:06:00,
2013-02-04 10:12:00,41.2,29.5,30.21,WNW,286,1.0,2.0,63,0.00,,,0.00,Wunderground v.1.15,2013-02-04 15:12:00,
2013-02-04 10:18:00,42.1,28.8,30.22,West,263,1.0,3.0,59,0.00,,,0.00,Wunderground v.1.15,2013-02-04 15:18:00,
2013-02-04 10:24:00,42.9,28.7,30.22,West,280,1.0,2.0,57,0.00,,,0.00,Wunderground v.1.15,2013-02-04 15:24:00,
2013-02-04 10:30:00,43.5,27.5,30.22,WSW,238,1.0,1.0,53,0.00,,,0.00,Wunderground v.1.15,2013-02-04 15:30:00,
2013-02-04 10:36:00,43.8,27.3,30.21,West,264,1.0,1.0,52,0.00,,,0.00,Wunderground v.1.15,2013-02-04 15:36:00,
2013-02-04 10:42:00,44.2,27.7,30.21,West,266,1.0,1.0,52,0.00,,,0.00,Wunderground v.1.15,2013-02-04 15:42:00,
2013-02-04 10:48:00,44.3,26.8,30.21,NW,308,2.0,3.0,50,0.00,,,0.00,Wunderground v.1.15,2013-02-04 15:48:00,
2013-02-04 10:54:00,44.9,25.9,30.21,West,279,1.0,2.0,47,0.00,,,0.00,Wunderground v.1.15,2013-02-04 15:54:00,
2013-02-04 11:00:00,45.6,26.5,30.21,WSW,239,2.0,3.0,47,0.00,,,0.00,Wunderground v.1.15,2013-02-04 16:00:00,
2013-02-04 11:06:00,45.8,25.6,30.21,WNW,286,2.0,3.0,45,0.00,,,0.00,Wunderground v.1.15,2013-02-04 16:06:00,
2013-02-04 11:12:00,46.0,25.8,30.21,WNW,303,2.0,5.0,45,0.00,,,0.00,Wunderground v.1.15,2013-02-04 16:12:00,
2013-02-04 11:18:00,45.9,25.2,30.21,WSW,251,2.0,5.0,44,0.00,,,0.00,Wunderground v.1.15,2013-02-04 16:18:00,
2013-02-04 11:24:00,45.9,26.3,30.21,NW,318,1.0,2.0,46,0.00,,,0.00,Wunderground v.1.15,2013-02-04 16:24:00,
2013-02-04 11:30:00,45.9,24.6,30.20,WNW,299,2.0,2.0,43,0.00,,,0.00,Wunderground v.1.15,2013-02-04 16:30:00,
2013-02-04 11:36:00,45.9,26.3,30.20,NNW,335,2.0,4.0,46,0.00,,,0.00,Wunderground v.1.15,2013-02-04 16:36:00,
2013-02-04 11:42:00,45.9,25.2,30.18,NW,311,2.0,3.0,44,0.00,,,0.00,Wunderground v.1.15,2013-02-04 16:42:00,
2013-02-04 11:48:00,45.8,25.1,30.18,West,263,2.0,3.0,44,0.00,,,0.00,Wunderground v.1.15,2013-02-04 16:48:00,
2013-02-04 11:54:00,45.9,25.2,30.18,West,274,2.0,2.0,44,0.00,,,0.00,Wunderground v.1.15,2013-02-04 16:54:00,
2013-02-04 12:00:00,45.9,25.2,30.18,WNW,293,1.0,2.0,44,0.00,,,0.00,Wunderground v.1.15,2013-02-04 17:00:00,
2013-02-04 12:06:00,45.9,26.3,30.19,WNW,301,2.0,2.0,46,0.00,,,0.00,Wunderground v.1.15,2013-02-04 17:06:00,
2013-02-04 12:12:00,45.9,26.8,30.20,West,278,2.0,2.0,47,0.00,,,0.00,Wunderground v.1.15,2013-02-04 17:12:00,
2013-02-04 12:18:00,46.0,26.9,30.20,East,79,1.0,2.0,47,0.00,,,0.00,Wunderground v.1.15,2013-02-04 17:18:00,
2013-02-04 12:24:00,46.3,28.2,30.20,NNW,331,1.0,1.0,49,0.00,,,0.00,Wunderground v.1.15,2013-02-04 17:24:00,
2013-02-04 12:30:00,47.0,28.3,30.20,North,6,1.0,1.0,48,0.00,,,0.00,Wunderground v.1.15,2013-02-04 17:30:00,
2013-02-04 12:36:00,47.8,29.5,30.20,NNE,33,2.0,2.0,49,0.00,,,0.00,Wunderground v.1.15,2013-02-04 17:36:00,
2013-02-04 12:42:00,48.2,27.8,30.19,NNW,343,2.0,3.0,45,0.00,,,0.00,Wunderground v.1.15,2013-02-04 17:42:00,
2013-02-04 12:48:00,49.0,28.6,30.19,NE,49,2.0,5.0,45,0.00,,,0.00,Wunderground v.1.15,2013-02-04 17:48:00,
2013-02-04 12:54:00,49.1,28.7,30.18,ENE,70,2.0,3.0,45,0.00,,,0.00,Wunderground v.1.15,2013-02-04 17:54:00,
2013-02-04 13:00:00,49.1,27.0,30.16,NW,313,1.0,1.0,42,0.00,,,0.00,Wunderground v.1.15,2013-02-04 18:00:00,
2013-02-04 13:06:00,48.8,27.8,30.16,NNW,339,1.0,3.0,44,0.00,,,0.00,Wunderground v.1.15,2013-02-04 18:06:00,
2013-02-04 13:12:00,48.9,27.9,30.15,WNW,297,3.0,3.0,44,0.00,,,0.00,Wunderground v.1.15,2013-02-04 18:12:00,
2013-02-04 13:18:00,49.5,27.9,30.14,NNW,339,3.0,3.0,43,0.00,,,0.00,Wunderground v.1.15,2013-02-04 18:18:00,
2013-02-04 13:24:00,50.3,26.9,30.14,WNW,295,3.0,5.0,40,0.00,,,0.00,Wunderground v.1.15,2013-02-04 18:24:00,
2013-02-04 13:30:00,50.5,26.4,30.14,West,274,3.0,3.0,39,0.00,,,0.00,Wunderground v.1.15,2013-02-04 18:30:00,
2013-02-04 13:36:00,51.2,28.3,30.14,NNW,345,2.0,4.0,41,0.00,,,0.00,Wunderground v.1.15,2013-02-04 18:36:00,
2013-02-04 13:42:00,51.4,28.5,30.14,North,3,2.0,2.0,41,0.00,,,0.00,Wunderground v.1.15,2013-02-04 18:42:00,
2013-02-04 13:48:00,51.7,28.7,30.14,ENE,57,1.0,2.0,41,0.00,,,0.00,Wunderground v.1.15,2013-02-04 18:48:00,
2013-02-04 13:54:00,51.5,27.9,30.14,NW,310,1.0,1.0,40,0.00,,,0.00,Wunderground v.1.15,2013-02-04 18:54:00,
2013-02-04 14:00:00,51.1,27.6,30.14,North,349,1.0,1.0,40,0.00,,,0.00,Wunderground v.1.15,2013-02-04 19:00:00,
2013-02-04 14:06:00,50.9,28.0,30.14,North,7,2.0,3.0,41,0.00,,,0.00,Wunderground v.1.15,2013-02-04 19:06:00,
2013-02-04 14:12:00,50.8,29.1,30.14,NNE,31,2.0,3.0,43,0.00,,,0.00,Wunderground v.1.15,2013-02-04 19:12:00,
2013-02-04 14:18:00,50.8,27.9,30.13,NNW,329,2.0,3.0,41,0.00,,,0.00,Wunderground v.1.15,2013-02-04 19:18:00,
2013-02-04 14:24:00,50.8,27.9,30.13,NNW,341,2.0,2.0,41,0.00,,,0.00,Wunderground v.1.15,2013-02-04 19:24:00,
2013-02-04 14:30:00,50.8,29.1,30.12,NNW,339,2.0,2.0,43,0.00,,,0.00,Wunderground v.1.15,2013-02-04 19:30:00,
2013-02-04 14:36:00,50.9,28.6,30.12,WNW,298,2.0,3.0,42,0.00,,,0.00,Wunderground v.1.15,2013-02-04 19:36:00,
2013-02-04 14:42:00,51.0,28.1,30.12,NW,320,2.0,5.0,41,0.00,,,0.00,Wunderground v.1.15,2013-02-04 19:42:00,
2013-02-04 14:48:00,51.1,28.8,30.12,NNW,333,2.0,5.0,42,0.00,,,0.00,Wunderground v.1.15,2013-02-04 19:48:00,
2013-02-04 14:54:00,51.0,27.5,30.12,NNW,342,2.0,3.0,40,0.00,,,0.00,Wunderground v.1.15,2013-02-04 19:54:00,
2013-02-04 15:00:00,51.2,28.3,30.11,WNW,295,2.0,2.0,41,0.00,,,0.00,Wunderground v.1.15,2013-02-04 20:00:00,
2013-02-04 15:06:00,51.2,27.7,30.11,NW,324,2.0,3.0,40,0.00,,,0.00,Wunderground v.1.15,2013-02-04 20:06:00,
2013-02-04 15:12:00,51.3,27.2,30.11,North,5,2.0,4.0,39,0.00,,,0.00,Wunderground v.1.15,2013-02-04 20:12:00,
2013-02-04 15:18:00,51.1,28.8,30.12,North,354,2.0,4.0,42,0.00,,,0.00,Wunderground v.1.15,2013-02-04 20:18:00,
2013-02-04 15:24:00,50.9,27.4,30.12,NNW,340,2.0,2.0,40,0.00,,,0.00,Wunderground v.1.15,2013-02-04 20:24:00,
2013-02-04 15:30:00,50.9,28.0,30.11,NNW,346,2.0,2.0,41,0.00,,,0.00,Wunderground v.1.15,2013-02-04 20:30:00,
2013-02-04 15:36:00,51.0,28.1,30.11,NNW,335,1.0,2.0,41,0.00,,,0.00,Wunderground v.1.15,2013-02-04 20:36:00,
2013-02-04 15:42:00,50.9,28.0,30.11,NW,308,2.0,2.0,41,0.00,,,0.00,Wunderground v.1.15,2013-02-04 20:42:00,
2013-02-04 15:48:00,50.9,28.0,30.10,WNW,283,2.0,2.0,41,0.00,,,0.00,Wunderground v.1.15,2013-02-04 20:48:00,
2013-02-04 15:54:00,50.7,27.8,30.10,WNW,303,2.0,3.0,41,0.00,,,0.00,Wunderground v.1.15,2013-02-04 20:54:00,
2013-02-04 16:00:00,50.5,28.2,30.10,WNW,295,2.0,3.0,42,0.00,,,0.00,Wunderground v.1.15,2013-02-04 21:00:00,
2013-02-04 16:06:00,50.3,28.1,30.11,NNW,347,2.0,3.0,42,0.00,,,0.00,Wunderground v.1.15,2013-02-04 21:06:00,
2013-02-04 16:12:00,50.2,27.4,30.11,NW,322,2.0,2.0,41,0.00,,,0.00,Wunderground v.1.15,2013-02-04 21:12:00,
2013-02-04 16:18:00,50.2,27.4,30.11,NNW,347,2.0,4.0,41,0.00,,,0.00,Wunderground v.1.15,2013-02-04 21:18:00,
2013-02-04 16:24:00,50.0,26.6,30.11,NNW,331,2.0,5.0,40,0.00,,,0.00,Wunderground v.1.15,2013-02-04 21:24:00,
2013-02-04 16:30:00,49.7,26.9,30.11,North,357,3.0,3.0,41,0.00,,,0.00,Wunderground v.1.15,2013-02-04 21:30:00,
2013-02-04 16:36:00,49.5,27.3,30.11,NNW,336,3.0,3.0,42,0.00,,,0.00,Wunderground v.1.15,2013-02-04 21:36:00,
2013-02-04 16:42:00,49.3,27.2,30.11,NW,319,2.0,3.0,42,0.00,,,0.00,Wunderground v.1.15,2013-02-04 21:42:00,
2013-02-04 16:48:00,49.1,28.1,30.11,NNW,327,1.0,3.0,44,0.00,,,0.00,Wunderground v.1.15,2013-02-04 21:48:00,
2013-02-04 16:54:00,48.8,28.4,30.11,North,4,2.0,3.0,45,0.00,,,0.00,Wunderground v.1.15,2013-02-04 21:54:00,
2013-02-04 17:00:00,48.5,27.0,30.10,NNW,328,2.0,3.0,43,0.00,,,0.00,Wunderground v.1.15,2013-02-04 22:00:00,
2013-02-04 17:06:00,48.1,27.2,30.11,North,359,3.0,3.0,44,0.00,,,0.00,Wunderground v.1.15,2013-02-04 22:06:00,
2013-02-04 17:12:00,47.7,26.3,30.11,NW,304,2.0,3.0,43,0.00,,,0.00,Wunderground v.1.15,2013-02-04 22:12:00,
2013-02-04 17:18:00,47.5,27.2,30.11,NW,319,2.0,7.0,45,0.00,,,0.00,Wunderground v.1.15,2013-02-04 22:18:00,
2013-02-04 17:24:00,47.2,26.9,30.11,NNW,331,2.0,3.0,45,0.00,,,0.00,Wunderground v.1.15,2013-02-04 22:24:00,
2013-02-04 17:30:00,47.0,27.8,30.10,NW,326,3.0,3.0,47,0.00,,,0.00,Wunderground v.1.15,2013-02-04 22:30:00,
2013-02-04 17:36:00,46.8,27.6,30.11,NNW,330,3.0,3.0,47,0.00,,,0.00,Wunderground v.1.15,2013-02-04 22:36:00,
2013-02-04 17:42:00,46.6,27.9,30.11,NNW,342,2.0,4.0,48,0.00,,,0.00,Wunderground v.1.15,2013-02-04 22:42:00,
2013-02-04 17:48:00,46.4,27.8,30.11,NW,325,2.0,4.0,48,0.00,,,0.00,Wunderground v.1.15,2013-02-04 22:48:00,
2013-02-04 17:54:00,46.3,27.7,30.11,NNW,335,2.0,3.0,48,0.00,,,0.00,Wunderground v.1.15,2013-02-04 22:54:00,
2013-02-04 18:00:00,46.0,27.9,30.11,NNW,341,1.0,1.0,49,0.00,,,0.00,Wunderground v.1.15,2013-02-04 23:00:00,
2013-02-04 18:06:00,45.9,27.8,30.12,NW,318,1.0,2.0,49,0.00,,,0.00,Wunderground v.1.15,2013-02-04 23:06:00,
2013-02-04 18:12:00,45.6,27.5,30.12,NW,326,1.0,2.0,49,0.00,,,0.00,Wunderground v.1.15,2013-02-04 23:12:00,
2013-02-04 18:18:00,45.5,27.9,30.11,NNW,345,1.0,2.0,50,0.00,,,0.00,Wunderground v.1.15,2013-02-04 23:18:00,
2013-02-04 18:24:00,45.2,27.6,30.11,NW,325,1.0,2.0,50,0.00,,,0.00,Wunderground v.1.15,2013-02-04 23:24:00,
2013-02-04 18:30:00,45.0,27.9,30.12,NW,320,1.0,3.0,51,0.00,,,0.00,Wunderground v.1.15,2013-02-04 23:30:00,
2013-02-04 18:36:00,44.9,27.8,30.11,NNW,335,0.0,3.0,51,0.00,,,0.00,Wunderground v.1.15,2013-02-04 23:36:00,
2013-02-04 18:42:00,44.6,28.0,30.12,NNW,329,0.0,2.0,52,0.00,,,0.00,Wunderground v.1.15,2013-02-04 23:42:00,
2013-02-04 18:48:00,44.4,27.9,30.11,NW,326,0.0,2.0,52,0.00,,,0.00,Wunderground v.1.15,2013-02-04 23:48:00,
2013-02-04 18:54:00,44.1,28.0,30.12,NW,324,0.0,0.0,53,0.00,,,0.00,Wunderground v.1.15,2013-02-04 23:54:00,
2013-02-04 19:00:00,43.8,28.2,30.12,NW,324,0.0,0.0,54,0.00,,,0.00,Wunderground v.1.15,2013-02-05 00:00:00,
2013-02-04 19:06:00,43.6,28.0,30.12,NW,324,0.0,0.0,54,0.00,,,0.00,Wunderground v.1.15,2013-02-05 00:06:00,
2013-02-04 19:12:00,43.4,28.3,30.13,NW,324,0.0,0.0,55,0.00,,,0.00,Wunderground v.1.15,2013-02-05 00:12:00,
2013-02-04 19:18:00,43.1,28.5,30.13,NW,324,0.0,0.0,56,0.00,,,0.00,Wunderground v.1.15,2013-02-05 00:18:00,
2013-02-04 19:24:00,42.8,28.6,30.12,NW,324,0.0,0.0,57,0.00,,,0.00,Wunderground v.1.15,2013-02-05 00:24:00,
2013-02-04 19:30:00,42.5,28.8,30.12,NW,324,0.0,0.0,58,0.00,,,0.00,Wunderground v.1.15,2013-02-05 00:30:00,
2013-02-04 19:36:00,42.4,29.1,30.11,NW,324,0.0,0.0,59,0.00,,,0.00,Wunderground v.1.15,2013-02-05 00:36:00,
2013-02-04 19:42:00,42.0,29.1,30.11,NW,324,0.0,0.0,60,0.00,,,0.00,Wunderground v.1.15,2013-02-05 00:42:00,
2013-02-04 19:48:00,41.8,28.9,30.11,NW,324,0.0,0.0,60,0.00,,,0.00,Wunderground v.1.15,2013-02-05 00:48:00,
2013-02-04 19:54:00,41.6,29.1,30.11,NW,324,0.0,0.0,61,0.00,,,0.00,Wunderground v.1.15,2013-02-05 00:54:00,
2013-02-04 20:00:00,41.3,29.3,30.11,NW,324,0.0,0.0,62,0.00,,,0.00,Wunderground v.1.15,2013-02-05 01:00:00,
2013-02-04 20:06:00,41.1,29.5,30.11,NW,324,0.0,0.0,63,0.00,,,0.00,Wunderground v.1.15,2013-02-05 01:06:00,
2013-02-04 20:12:00,41.1,29.1,30.11,NW,324,0.0,0.0,62,0.00,,,0.00,Wunderground v.1.15,2013-02-05 01:12:00,
2013-02-04 20:18:00,41.2,29.2,30.11,NW,324,0.0,0.0,62,0.00,,,0.00,Wunderground v.1.15,2013-02-05 01:18:00,
2013-02-04 20:24:00,41.0,29.4,30.11,NW,324,0.0,0.0,63,0.00,,,0.00,Wunderground v.1.15,2013-02-05 01:24:00,
2013-02-04 20:30:00,40.8,29.2,30.11,NW,324,0.0,0.0,63,0.00,,,0.00,Wunderground v.1.15,2013-02-05 01:30:00,
2013-02-04 20:36:00,40.6,29.0,30.10,NW,324,0.0,0.0,63,0.00,,,0.00,Wunderground v.1.15,2013-02-05 01:36:00,
2013-02-04 20:42:00,40.4,29.2,30.10,NW,324,0.0,0.0,64,0.00,,,0.00,Wunderground v.1.15,2013-02-05 01:42:00,
2013-02-04 20:48:00,40.1,28.9,30.10,NW,324,0.0,0.0,64,0.00,,,0.00,Wunderground v.1.15,2013-02-05 01:48:00,
2013-02-04 20:54:00,39.8,28.6,30.10,NW,324,0.0,0.0,64,0.00,,,0.00,Wunderground v.1.15,2013-02-05 01:54:00,
2013-02-04 21:00:00,39.6,28.8,30.11,NW,324,0.0,0.0,65,0.00,,,0.00,Wunderground v.1.15,2013-02-05 02:00:00,
2013-02-04 21:06:00,39.3,28.9,30.11,NW,324,0.0,0.0,66,0.00,,,0.00,Wunderground v.1.15,2013-02-05 02:06:00,
2013-02-04 21:12:00,38.9,28.5,30.11,NW,324,0.0,0.0,66,0.00,,,0.00,Wunderground v.1.15,2013-02-05 02:12:00,
2013-02-04 21:18:00,38.5,28.9,30.11,NW,324,0.0,0.0,68,0.00,,,0.00,Wunderground v.1.15,2013-02-05 02:18:00,
2013-02-04 21:24:00,38.1,29.2,30.11,NW,324,0.0,0.0,70,0.00,,,0.00,Wunderground v.1.15,2013-02-05 02:24:00,
2013-02-04 21:30:00,37.9,29.0,30.11,NW,324,0.0,0.0,70,0.00,,,0.00,Wunderground v.1.15,2013-02-05 02:30:00,
2013-02-04 21:36:00,38.2,28.9,30.11,NW,324,0.0,0.0,69,0.00,,,0.00,Wunderground v.1.15,2013-02-05 02:36:00,
2013-02-04 21:42:00,38.6,29.3,30.11,NW,324,0.0,0.0,69,0.00,,,0.00,Wunderground v.1.15,2013-02-05 02:42:00,
2013-02-04 21:48:00,39.0,29.3,30.11,NW,324,0.0,0.0,68,0.00,,,0.00,Wunderground v.1.15,2013-02-05 02:48:00,
2013-02-04 21:54:00,39.4,29.7,30.12,NNW,333,0.0,1.0,68,0.00,,,0.00,Wunderground v.1.15,2013-02-05 02:54:00,
2013-02-04 22:00:00,39.8,29.7,30.12,NNW,334,0.0,0.0,67,0.00,,,0.00,Wunderground v.1.15,2013-02-05 03:00:00,
2013-02-04 22:06:00,40.1,30.4,30.12,NNW,345,0.0,0.0,68,0.00,,,0.00,Wunderground v.1.15,2013-02-05 03:06:00,
2013-02-04 22:12:00,40.6,29.7,30.12,NW,320,0.0,1.0,65,0.00,,,0.00,Wunderground v.1.15,2013-02-05 03:12:00,
2013-02-04 22:18:00,41.1,30.2,30.11,NNW,336,1.0,1.0,65,0.00,,,0.00,Wunderground v.1.15,2013-02-05 03:18:00,
2013-02-04 22:24:00,41.5,29.8,30.11,NNW,333,1.0,2.0,63,0.00,,,0.00,Wunderground v.1.15,2013-02-05 03:24:00,
2013-02-04 22:30:00,41.6,29.9,30.11,NW,322,1.0,2.0,63,0.00,,,0.00,Wunderground v.1.15,2013-02-05 03:30:00,
2013-02-04 22:36:00,41.8,30.5,30.11,NNW,329,1.0,2.0,64,0.00,,,0.00,Wunderground v.1.15,2013-02-05 03:36:00,
2013-02-04 22:42:00,41.9,30.6,30.11,West,262,1.0,2.0,64,0.00,,,0.00,Wunderground v.1.15,2013-02-05 03:42:00,
2013-02-04 22:48:00,41.9,30.2,30.11,NNW,332,1.0,2.0,63,0.00,,,0.00,Wunderground v.1.15,2013-02-05 03:48:00,
2013-02-04 22:54:00,42.0,30.7,30.11,NNW,338,1.0,1.0,64,0.00,,,0.00,Wunderground v.1.15,2013-02-05 03:54:00,
2013-02-04 23:00:00,41.9,30.2,30.11,NE,52,0.0,0.0,63,0.00,,,0.00,Wunderground v.1.15,2013-02-05 04:00:00,
2013-02-04 23:06:00,41.9,30.2,30.11,NE,46,0.0,1.0,63,0.00,,,0.00,Wunderground v.1.15,2013-02-05 04:06:00,
2013-02-04 23:12:00,41.8,30.5,30.11,NNE,18,0.0,1.0,64,0.00,,,0.00,Wunderground v.1.15,2013-02-05 04:12:00,
2013-02-04 23:18:00,41.8,30.1,30.11,NNE,17,0.0,1.0,63,0.00,,,0.00,Wunderground v.1.15,2013-02-05 04:18:00,
2013-02-04 23:24:00,41.8,30.1,30.11,NNW,336,0.0,1.0,63,0.00,,,0.00,Wunderground v.1.15,2013-02-05 04:24:00,
2013-02-04 23:30:00,41.8,30.5,30.11,NNW,336,0.0,0.0,64,0.00,,,0.00,Wunderground v.1.15,2013-02-05 04:30:00,
2013-02-04 23:36:00,41.7,30.4,30.10,NNW,336,0.0,0.0,64,0.00,,,0.00,Wunderground v.1.15,2013-02-05 04:36:00,
2013-02-04 23:42:00,41.6,30.3,30.10,NNW,336,0.0,0.0,64,0.00,,,0.00,Wunderground v.1.15,2013-02-05 04:42:00,
2013-02-04 23:48:00,41.6,29.9,30.09,NNW,332,0.0,0.0,63,0.00,,,0.00,Wunderground v.1.15,2013-02-05 04:48:00,
2013-02-04 23:54:00,41.6,29.9,30.09,NNW,332,0.0,0.0,63,0.00,,,0.00,Wunderground v.1.15,2013-02-05 04:54:00,